TITAN 4 CENTAUR R/B, 27169

Orbit data source: Space-Track

TITAN 4 CENTAUR R/B, 27169 is space debris in GEO originally from a launch on Mon, 14 Jan 2002 UTC launched from the Air Force Eastern Test Range (AFETR). Debris objects in space refer to the collection of defunct objects orbiting the Earth. Examples of debris include non-operational satellites, rocket bodies, and fragments generated from explosions, collisions, or faulty payload assembly.

Loading next visibility...
Identifier
27169, 2002-001B
Orbit
GEO
Country
Flag of USUS
Related business
Manufacturer
LMA
Mission
Spacecraft
Bus & Motor
CENTAUR T, RL-10 X2
Mass
~1,840 kg wet, ~1,840 kg dry
Launch date (UTC)
2002-01-14 (24 years ago)
Launch vehicle
Unknown
Launch site
Air Force Eastern Test Range (AFETR)
Object type
Payload
Rocket body
Debris
Shape & HBR
Cyl, 4.5 m
Radar Cross Section
37.970 m²

Expand to show TLE details & history
Last TLE update: 12 hours ago

TLE from 12 hours ago
0 TITAN 4 CENTAUR R/B
1 27169U 02001B   25343.16710487 -.00000075  00000-0  00000-0 0  9992
2 27169   9.8840  30.9621 0050561 133.3280 227.0513  1.00144464 24475
Epoch: 2025-12-09T04:00Z
TLE epoch observation values (Epoch: 2025-12-09T04:00:37.860Z)
Latitude
0.00001°
Longitude
-107.3938°
Altitude
35,966.957 km
Speed
3.063 km/s
True Right ascension
02h 03m 40s
True Declination
0° 00' 00"
Sunlit
Object was in daylight at epoch
Visualization orbit readout
Latitude
Unknown
Longitude
Unknown
Altitude
Unknown
Speed
Unknown
Apparent Right ascension
Unknown
Apparent Declination
Unknown
Sunlit
N/A
Visualization observer readout
Local Sidereal Time
14:07:37
Azimuth
Unknown
Elevation
Unknown
Doppler factor
Unknown
Orbital elements
Apogee altitude
36,036.724 km
Perigee altitude
35,609.974 km
Semi-major axis
42,201.486 km
Eccentricity
0.00506
Inclination
9.884°
RAAN
30.9621°
Arg. of periapsis
133.328°
True anomaly
226.62903°
Mean anomaly
227.0513°
Eccentric anomaly
226.83998°
Mean motion
0.25035 °/min
Orbital period
1,437.97 mins
BSTAR
0
Loading maneuver chart data...
Computing Atmospheric mass density...
Loading historical data...
Loading historical data...
Loading historical data...
Loading historical data...
Loading historical data...
Loading historical data...
Loading historical data...
Other satellites on launch #1 in the year 2002 (2002-01-14 UTC)

Documentation

Showing up to 5 results
|